Time,TemperatureF,DewpointF,PressureIn,WindDirection,WindDirectionDegrees,WindSpeedMPH,WindSpeedGustMPH,Humidity,HourlyPrecipIn,Conditions,Clouds,dailyrainin,SoftwareType,DateUTC
2013-01-18 00:00:00,22.5,10.3,30.18,SSW,203,0.0,0.0,59,0.00,,,0.00,WUHU216HW,2013-01-18 07:00:00,
2013-01-18 00:05:00,22.5,10.3,30.18,SSW,203,0.0,0.0,59,0.00,,,0.00,WUHU216HW,2013-01-18 07:05:00,
2013-01-18 00:10:00,22.7,10.5,30.17,SSW,203,0.0,0.0,59,0.00,,,0.00,WUHU216HW,2013-01-18 07:10:00,
2013-01-18 00:15:00,22.9,11.0,30.18,SSW,203,0.0,0.2,60,0.00,,,0.00,WUHU216HW,2013-01-18 07:15:00,
2013-01-18 00:20:00,23.0,10.8,30.17,NNW,338,0.0,0.4,59,0.00,,,0.00,WUHU216HW,2013-01-18 07:20:00,
2013-01-18 00:25:00,23.0,10.8,30.17,NW,315,1.3,1.3,59,0.00,,,0.00,WUHU216HW,2013-01-18 07:25:00,
2013-01-18 00:30:00,22.9,10.6,30.17,NW,315,0.0,1.3,59,0.00,,,0.00,WUHU216HW,2013-01-18 07:30:00,
2013-01-18 00:35:00,22.9,10.6,30.17,NW,315,0.0,0.9,59,0.00,,,0.00,WUHU216HW,2013-01-18 07:35:00,
2013-01-18 00:40:00,22.7,10.8,30.17,NW,315,0.0,0.0,60,0.00,,,0.00,WUHU216HW,2013-01-18 07:40:00,
2013-01-18 00:45:00,22.5,9.9,30.17,NW,315,0.0,0.0,58,0.00,,,0.00,WUHU216HW,2013-01-18 07:45:00,
2013-01-18 00:50:00,22.3,9.7,30.16,NW,315,0.0,0.0,58,0.00,,,0.00,WUHU216HW,2013-01-18 07:50:00,
2013-01-18 00:55:00,22.1,9.9,30.16,NW,315,0.0,0.0,59,0.00,,,0.00,WUHU216HW,2013-01-18 07:55:00,
2013-01-18 01:00:00,22.0,9.8,30.17,NW,315,0.4,0.4,59,0.00,,,0.00,WUHU216HW,2013-01-18 08:00:00,
2013-01-18 01:05:00,22.1,10.4,30.16,NW,315,0.0,0.4,60,0.00,,,0.00,WUHU216HW,2013-01-18 08:05:00,
2013-01-18 01:10:00,22.1,9.9,30.16,NW,315,0.0,0.0,59,0.00,,,0.00,WUHU216HW,2013-01-18 08:10:00,
2013-01-18 01:15:00,22.0,9.4,30.16,NW,315,0.0,0.0,58,0.00,,,0.00,WUHU216HW,2013-01-18 08:15:00,
2013-01-18 01:20:00,21.6,9.9,30.16,NW,315,0.0,0.0,60,0.00,,,0.00,WUHU216HW,2013-01-18 08:20:00,
2013-01-18 01:25:00,22.0,10.2,30.16,WNW,293,0.0,0.9,60,0.00,,,0.00,WUHU216HW,2013-01-18 08:25:00,
2013-01-18 01:30:00,22.3,10.5,30.16,WNW,293,0.0,0.9,60,0.00,,,0.00,WUHU216HW,2013-01-18 08:30:00,
2013-01-18 01:35:00,22.3,10.1,30.17,WNW,293,0.0,0.0,59,0.00,,,0.00,WUHU216HW,2013-01-18 08:35:00,
2013-01-18 01:40:00,22.0,9.4,30.16,WSW,248,0.0,0.9,58,0.00,,,0.00,WUHU216HW,2013-01-18 08:40:00,
2013-01-18 01:45:00,21.8,9.2,30.17,WSW,248,0.0,0.9,58,0.00,,,0.00,WUHU216HW,2013-01-18 08:45:00,
2013-01-18 01:50:00,21.4,8.9,30.16,WSW,248,0.0,0.0,58,0.00,,,0.00,WUHU216HW,2013-01-18 08:50:00,
2013-01-18 01:55:00,21.2,9.1,30.16,WSW,248,0.0,0.9,59,0.00,,,0.00,WUHU216HW,2013-01-18 08:55:00,
2013-01-18 02:00:00,21.6,9.9,30.16,WSW,248,0.9,0.9,60,0.00,,,0.00,WUHU216HW,2013-01-18 09:00:00,
2013-01-18 02:05:00,21.6,9.9,30.16,WSW,248,0.0,0.9,60,0.00,,,0.00,WUHU216HW,2013-01-18 09:05:00,
2013-01-18 02:10:00,21.4,9.3,30.16,West,270,0.2,1.6,59,0.00,,,0.00,WUHU216HW,2013-01-18 09:10:00,
2013-01-18 02:15:00,21.4,9.7,30.16,West,270,0.0,1.6,60,0.00,,,0.00,WUHU216HW,2013-01-18 09:15:00,
2013-01-18 02:20:00,21.2,9.1,30.16,West,270,0.0,0.0,59,0.00,,,0.00,WUHU216HW,2013-01-18 09:20:00,
2013-01-18 02:25:00,21.2,9.1,30.16,West,270,0.0,0.0,59,0.00,,,0.00,WUHU216HW,2013-01-18 09:25:00,
2013-01-18 02:30:00,20.9,8.7,30.16,West,270,0.0,0.7,59,0.00,,,0.00,WUHU216HW,2013-01-18 09:30:00,
2013-01-18 02:35:00,20.7,9.4,30.16,NNW,338,0.2,0.7,61,0.00,,,0.00,WUHU216HW,2013-01-18 09:35:00,
2013-01-18 02:40:00,20.7,9.0,30.16,WNW,293,0.0,1.1,60,0.00,,,0.00,WUHU216HW,2013-01-18 09:40:00,
2013-01-18 02:45:00,20.7,9.4,30.15,NW,315,0.0,1.1,61,0.00,,,0.00,WUHU216HW,2013-01-18 09:45:00,
2013-01-18 02:50:00,20.7,9.0,30.15,NW,315,0.0,0.0,60,0.00,,,0.00,WUHU216HW,2013-01-18 09:50:00,
2013-01-18 02:55:00,20.7,8.6,30.16,NW,315,0.0,0.0,59,0.00,,,0.00,WUHU216HW,2013-01-18 09:55:00,
2013-01-18 03:00:00,20.5,8.4,30.15,NNE,23,0.2,0.2,59,0.00,,,0.00,WUHU216HW,2013-01-18 10:00:00,
2013-01-18 03:05:00,20.3,8.6,30.15,NNW,338,0.4,0.4,60,0.00,,,0.00,WUHU216HW,2013-01-18 10:05:00,
2013-01-18 03:10:00,20.5,9.2,30.15,NW,315,0.0,0.9,61,0.00,,,0.00,WUHU216HW,2013-01-18 10:10:00,
2013-01-18 03:15:00,20.5,8.8,30.15,NW,315,0.0,0.9,60,0.00,,,0.00,WUHU216HW,2013-01-18 10:15:00,
2013-01-18 03:20:00,20.5,8.8,30.15,NW,315,0.0,0.0,60,0.00,,,0.00,WUHU216HW,2013-01-18 10:20:00,
2013-01-18 03:44:00,20.0,8.3,30.14,WNW,293,0.0,0.0,60,0.00,,,0.00,WUHU216HW,2013-01-18 10:44:00,
2013-01-18 03:49:00,19.8,8.1,30.14,WNW,293,0.0,0.0,60,0.00,,,0.00,WUHU216HW,2013-01-18 10:49:00,
2013-01-18 03:54:00,19.8,8.5,30.14,WNW,293,0.7,0.7,61,0.00,,,0.00,WUHU216HW,2013-01-18 10:54:00,
2013-01-18 03:59:00,20.0,8.7,30.14,WNW,293,0.0,0.7,61,0.00,,,0.00,WUHU216HW,2013-01-18 10:59:00,
2013-01-18 04:04:00,20.0,8.7,30.14,WNW,293,0.0,1.1,61,0.00,,,0.00,WUHU216HW,2013-01-18 11:04:00,
2013-01-18 04:09:00,19.8,8.5,30.13,WNW,293,0.0,1.1,61,0.00,,,0.00,WUHU216HW,2013-01-18 11:09:00,
2013-01-18 04:14:00,19.8,8.8,30.13,WNW,293,0.0,0.9,62,0.00,,,0.00,WUHU216HW,2013-01-18 11:14:00,
2013-01-18 04:19:00,19.8,8.5,30.13,WNW,293,0.0,0.9,61,0.00,,,0.00,WUHU216HW,2013-01-18 11:19:00,
2013-01-18 04:24:00,19.6,8.3,30.14,WNW,293,0.0,0.0,61,0.00,,,0.00,WUHU216HW,2013-01-18 11:24:00,
2013-01-18 04:29:00,19.3,8.7,30.13,WNW,293,0.4,0.4,63,0.00,,,0.00,WUHU216HW,2013-01-18 11:29:00,
2013-01-18 04:34:00,19.3,8.9,30.13,WNW,293,0.0,0.4,64,0.00,,,0.00,WUHU216HW,2013-01-18 11:34:00,
2013-01-18 04:39:00,19.3,8.3,30.13,WNW,293,0.0,0.2,62,0.00,,,0.00,WUHU216HW,2013-01-18 11:39:00,
2013-01-18 04:44:00,19.3,8.3,30.13,WNW,293,0.0,0.2,62,0.00,,,0.00,WUHU216HW,2013-01-18 11:44:00,
2013-01-18 04:49:00,19.3,8.7,30.13,WNW,293,0.0,0.2,63,0.00,,,0.00,WUHU216HW,2013-01-18 11:49:00,
2013-01-18 04:54:00,19.3,8.7,30.12,WNW,293,0.0,0.0,63,0.00,,,0.00,WUHU216HW,2013-01-18 11:54:00,
2013-01-18 04:59:00,19.4,9.5,30.12,WNW,293,0.0,0.0,65,0.00,,,0.00,WUHU216HW,2013-01-18 11:59:00,
2013-01-18 05:04:00,19.4,9.5,30.12,WNW,293,0.0,0.9,65,0.00,,,0.00,WUHU216HW,2013-01-18 12:04:00,
2013-01-18 05:09:00,19.3,9.3,30.13,WNW,293,0.0,0.9,65,0.00,,,0.00,WUHU216HW,2013-01-18 12:09:00,
2013-01-18 05:14:00,19.1,8.8,30.13,WNW,293,0.0,1.6,64,0.00,,,0.00,WUHU216HW,2013-01-18 12:14:00,
2013-01-18 05:19:00,19.1,8.8,30.13,WNW,293,0.2,1.6,64,0.00,,,0.00,WUHU216HW,2013-01-18 12:19:00,
2013-01-18 05:24:00,19.1,9.1,30.13,WNW,293,0.0,0.2,65,0.00,,,0.00,WUHU216HW,2013-01-18 12:24:00,
2013-01-18 05:29:00,19.1,8.8,30.12,WNW,293,0.0,0.4,64,0.00,,,0.00,WUHU216HW,2013-01-18 12:29:00,
2013-01-18 05:34:00,19.1,9.1,30.12,WNW,293,0.0,0.4,65,0.00,,,0.00,WUHU216HW,2013-01-18 12:34:00,
2013-01-18 05:39:00,19.3,9.3,30.12,WNW,293,0.0,0.0,65,0.00,,,0.00,WUHU216HW,2013-01-18 12:39:00,
2013-01-18 05:44:00,19.3,9.3,30.12,WNW,293,0.0,0.2,65,0.00,,,0.00,WUHU216HW,2013-01-18 12:44:00,
2013-01-18 05:49:00,19.3,8.9,30.12,WNW,293,0.0,1.1,64,0.00,,,0.00,WUHU216HW,2013-01-18 12:49:00,
2013-01-18 05:54:00,19.1,8.5,30.12,WNW,293,0.0,1.1,63,0.00,,,0.00,WUHU216HW,2013-01-18 12:54:00,
2013-01-18 05:59:00,18.9,8.3,30.12,WNW,293,0.0,0.7,63,0.00,,,0.00,WUHU216HW,2013-01-18 12:59:00,
2013-01-18 06:04:00,19.1,8.8,30.12,WNW,293,0.0,0.0,64,0.00,,,0.00,WUHU216HW,2013-01-18 13:04:00,
2013-01-18 06:09:00,19.3,8.9,30.12,WNW,293,0.0,0.7,64,0.00,,,0.00,WUHU216HW,2013-01-18 13:09:00,
2013-01-18 06:14:00,19.3,9.3,30.12,WNW,293,0.0,0.7,65,0.00,,,0.00,WUHU216HW,2013-01-18 13:14:00,
2013-01-18 06:19:00,19.1,9.1,30.12,NW,315,0.0,0.2,65,0.00,,,0.00,WUHU216HW,2013-01-18 13:19:00,
2013-01-18 06:24:00,19.6,9.3,30.12,WSW,248,0.0,0.2,64,0.00,,,0.00,WUHU216HW,2013-01-18 13:24:00,
2013-01-18 06:29:00,19.6,8.9,30.12,WSW,248,0.0,0.0,63,0.00,,,0.00,WUHU216HW,2013-01-18 13:29:00,
2013-01-18 06:34:00,19.6,8.7,30.12,WSW,248,0.0,0.4,62,0.00,,,0.00,WUHU216HW,2013-01-18 13:34:00,
2013-01-18 06:39:00,19.8,8.8,30.12,WSW,248,0.0,0.4,62,0.00,,,0.00,WUHU216HW,2013-01-18 13:39:00,
2013-01-18 06:44:00,19.8,8.5,30.12,WSW,248,0.0,0.0,61,0.00,,,0.00,WUHU216HW,2013-01-18 13:44:00,
2013-01-18 06:49:00,20.0,8.7,30.12,WSW,248,0.0,0.0,61,0.00,,,0.00,WUHU216HW,2013-01-18 13:49:00,
2013-01-18 06:54:00,19.8,8.5,30.12,WSW,248,0.0,0.0,61,0.00,,,0.00,WUHU216HW,2013-01-18 13:54:00,
2013-01-18 06:59:00,19.8,8.5,30.12,WSW,248,0.0,0.0,61,0.00,,,0.00,WUHU216HW,2013-01-18 13:59:00,
2013-01-18 07:04:00,19.8,8.5,30.12,WSW,248,0.0,0.0,61,0.00,,,0.00,WUHU216HW,2013-01-18 14:04:00,
2013-01-18 07:09:00,19.6,8.3,30.12,WSW,248,0.0,0.0,61,0.00,,,0.00,WUHU216HW,2013-01-18 14:09:00,
2013-01-18 07:14:00,20.0,8.7,30.13,West,270,0.0,0.0,61,0.00,,,0.00,WUHU216HW,2013-01-18 14:14:00,
2013-01-18 07:19:00,20.2,8.8,30.13,West,270,0.0,0.0,61,0.00,,,0.00,WUHU216HW,2013-01-18 14:19:00,
2013-01-18 07:24:00,20.2,8.5,30.13,West,270,0.0,0.0,60,0.00,,,0.00,WUHU216HW,2013-01-18 14:24:00,
2013-01-18 07:29:00,20.3,8.6,30.13,West,270,0.0,0.2,60,0.00,,,0.00,WUHU216HW,2013-01-18 14:29:00,
2013-01-18 07:34:00,20.3,8.6,30.13,West,270,0.0,0.2,60,0.00,,,0.00,WUHU216HW,2013-01-18 14:34:00,
2013-01-18 07:39:00,20.5,8.8,30.13,West,270,0.0,0.4,60,0.00,,,0.00,WUHU216HW,2013-01-18 14:39:00,
2013-01-18 07:44:00,21.2,9.5,30.13,West,270,0.0,0.4,60,0.00,,,0.00,WUHU216HW,2013-01-18 14:44:00,
2013-01-18 07:49:00,21.8,9.6,30.13,West,270,0.0,0.0,59,0.00,,,0.00,WUHU216HW,2013-01-18 14:49:00,
2013-01-18 07:54:00,22.5,10.3,30.13,West,270,0.0,0.0,59,0.00,,,0.00,WUHU216HW,2013-01-18 14:54:00,
2013-01-18 07:59:00,23.6,11.4,30.13,West,270,0.0,0.0,59,0.00,,,0.00,WUHU216HW,2013-01-18 14:59:00,
2013-01-18 08:04:00,24.5,11.3,30.13,West,270,0.0,0.0,57,0.00,,,0.00,WUHU216HW,2013-01-18 15:04:00,
2013-01-18 08:09:00,24.8,11.7,30.13,West,270,0.0,0.0,57,0.00,,,0.00,WUHU216HW,2013-01-18 15:09:00,
2013-01-18 08:14:00,24.8,11.7,30.13,West,270,0.0,0.0,57,0.00,,,0.00,WUHU216HW,2013-01-18 15:14:00,
2013-01-18 08:35:00,31.3,15.3,30.14,North,0,0.0,0.0,51,0.00,,,0.00,WUHU216HW,2013-01-18 15:35:00,
2013-01-18 08:40:00,31.9,15.8,30.14,North,0,0.0,0.0,51,0.00,,,0.00,WUHU216HW,2013-01-18 15:40:00,
2013-01-18 08:45:00,33.1,15.9,30.15,North,0,0.0,0.0,49,0.00,,,0.00,WUHU216HW,2013-01-18 15:45:00,
2013-01-18 08:50:00,34.0,16.3,30.15,North,0,0.0,0.0,48,0.00,,,0.00,WUHU216HW,2013-01-18 15:50:00,
2013-01-18 08:55:00,35.1,17.4,30.15,North,0,0.0,0.2,48,0.00,,,0.00,WUHU216HW,2013-01-18 15:55:00,
2013-01-18 09:00:00,36.2,17.3,30.14,North,0,0.0,0.2,46,0.00,,,0.00,WUHU216HW,2013-01-18 16:00:00,
2013-01-18 09:05:00,37.3,17.7,30.15,South,180,0.0,1.8,45,0.00,,,0.00,WUHU216HW,2013-01-18 16:05:00,
2013-01-18 09:10:00,38.5,18.9,30.15,SE,135,0.9,1.8,45,0.00,,,0.00,WUHU216HW,2013-01-18 16:10:00,
2013-01-18 09:15:00,39.6,19.4,30.15,SE,135,0.7,1.6,44,0.00,,,0.00,WUHU216HW,2013-01-18 16:15:00,
2013-01-18 09:20:00,40.5,19.1,30.15,SE,135,1.1,2.0,42,0.00,,,0.00,WUHU216HW,2013-01-18 16:20:00,
2013-01-18 09:25:00,41.2,19.7,30.15,SE,135,0.9,2.0,42,0.00,,,0.00,WUHU216HW,2013-01-18 16:25:00,
2013-01-18 09:30:00,42.1,19.5,30.15,SE,135,2.2,2.2,40,0.00,,,0.00,WUHU216HW,2013-01-18 16:30:00,
2013-01-18 09:35:00,42.8,19.5,30.16,SE,135,0.0,2.5,39,0.00,,,0.00,WUHU216HW,2013-01-18 16:35:00,
2013-01-18 09:40:00,43.6,19.4,30.15,SE,135,1.1,2.5,38,0.00,,,0.00,WUHU216HW,2013-01-18 16:40:00,
2013-01-18 09:45:00,44.3,18.8,30.16,South,180,1.6,1.6,36,0.00,,,0.00,WUHU216HW,2013-01-18 16:45:00,
2013-01-18 09:50:00,44.8,18.6,30.16,South,180,0.0,1.6,35,0.00,,,0.00,WUHU216HW,2013-01-18 16:50:00,
2013-01-18 09:55:00,45.4,18.5,30.16,South,180,0.0,1.3,34,0.00,,,0.00,WUHU216HW,2013-01-18 16:55:00,
2013-01-18 10:00:00,46.1,19.1,30.16,SSE,158,0.7,1.1,34,0.00,,,0.00,WUHU216HW,2013-01-18 17:00:00,
2013-01-18 10:05:00,46.4,18.7,30.16,SSE,158,1.3,1.6,33,0.00,,,0.00,WUHU216HW,2013-01-18 17:05:00,
2013-01-18 10:10:00,47.0,19.3,30.16,SSE,158,1.1,2.5,33,0.00,,,0.00,WUHU216HW,2013-01-18 17:10:00,
2013-01-18 10:15:00,47.5,19.1,30.15,SE,135,2.2,2.5,32,0.00,,,0.00,WUHU216HW,2013-01-18 17:15:00,
2013-01-18 10:20:00,47.9,18.7,30.15,SSE,158,1.3,2.9,31,0.00,,,0.00,WUHU216HW,2013-01-18 17:20:00,
2013-01-18 10:25:00,48.1,17.3,30.15,South,180,3.1,3.1,29,0.00,,,0.00,WUHU216HW,2013-01-18 17:25:00,
2013-01-18 10:30:00,48.8,17.8,30.15,South,180,2.0,3.1,29,0.00,,,0.00,WUHU216HW,2013-01-18 17:30:00,
2013-01-18 10:35:00,49.1,18.2,30.15,SE,135,1.1,2.7,29,0.00,,,0.00,WUHU216HW,2013-01-18 17:35:00,
2013-01-18 10:40:00,49.7,17.6,30.15,SE,135,3.4,3.4,28,0.00,,,0.00,WUHU216HW,2013-01-18 17:40:00,
2013-01-18 10:45:00,50.0,17.0,30.14,SSE,158,2.5,4.3,27,0.00,,,0.00,WUHU216HW,2013-01-18 17:45:00,
2013-01-18 10:50:00,50.4,17.4,30.14,SSE,158,3.8,4.3,27,0.00,,,0.00,WUHU216HW,2013-01-18 17:50:00,
2013-01-18 10:55:00,50.6,17.6,30.13,SSE,158,1.3,3.8,27,0.00,,,0.00,WUHU216HW,2013-01-18 17:55:00,
2013-01-18 11:00:00,50.8,15.9,30.13,SSE,158,3.4,3.8,25,0.00,,,0.00,WUHU216HW,2013-01-18 18:00:00,
2013-01-18 11:05:00,51.1,15.2,30.13,SE,135,4.5,4.9,24,0.00,,,0.00,WUHU216HW,2013-01-18 18:05:00,
2013-01-18 11:10:00,51.3,14.4,30.13,SE,135,4.9,6.0,23,0.00,,,0.00,WUHU216HW,2013-01-18 18:10:00,
2013-01-18 11:15:00,51.5,14.6,30.12,SSE,158,4.3,6.0,23,0.00,,,0.00,WUHU216HW,2013-01-18 18:15:00,
2013-01-18 11:20:00,51.5,14.6,30.12,SE,135,2.5,5.4,23,0.00,,,0.00,WUHU216HW,2013-01-18 18:20:00,
2013-01-18 11:25:00,51.8,14.9,30.12,SE,135,3.1,4.0,23,0.00,,,0.00,WUHU216HW,2013-01-18 18:25:00,
2013-01-18 11:30:00,52.2,14.2,30.11,South,180,2.9,4.0,22,0.00,,,0.00,WUHU216HW,2013-01-18 18:30:00,
2013-01-18 11:35:00,52.6,14.5,30.11,SSE,158,1.8,4.0,22,0.00,,,0.00,WUHU216HW,2013-01-18 18:35:00,
2013-01-18 11:40:00,52.7,14.7,30.11,SSE,158,2.9,4.0,22,0.00,,,0.00,WUHU216HW,2013-01-18 18:40:00,
2013-01-18 11:45:00,52.9,13.9,30.10,SSE,158,4.0,4.0,21,0.00,,,0.00,WUHU216HW,2013-01-18 18:45:00,
2013-01-18 11:50:00,53.3,14.1,30.10,SSE,158,3.4,4.3,21,0.00,,,0.00,WUHU216HW,2013-01-18 18:50:00,
2013-01-18 11:55:00,53.5,14.3,30.09,SE,135,2.5,4.3,21,0.00,,,0.00,WUHU216HW,2013-01-18 18:55:00,
2013-01-18 12:00:00,53.6,14.5,30.09,SSE,158,3.8,4.3,21,0.00,,,0.00,WUHU216HW,2013-01-18 19:00:00,
2013-01-18 12:05:00,54.0,13.9,30.08,SW,225,2.5,4.7,20,0.00,,,0.00,WUHU216HW,2013-01-18 19:05:00,
2013-01-18 12:10:00,54.4,14.1,30.08,SE,135,2.5,4.7,20,0.00,,,0.00,WUHU216HW,2013-01-18 19:10:00,
2013-01-18 12:15:00,54.7,9.9,30.08,North,0,0.0,4.0,17,0.00,,,0.00,WUHU216HW,2013-01-18 19:15:00,
2013-01-18 12:20:00,55.1,4.2,30.08,WNW,293,3.4,5.4,13,0.00,,,0.00,WUHU216HW,2013-01-18 19:20:00,
2013-01-18 12:25:00,56.0,7.8,30.08,NW,315,2.5,6.3,15,0.00,,,0.00,WUHU216HW,2013-01-18 19:25:00,
2013-01-18 12:30:00,56.5,5.2,30.08,NW,315,6.7,6.7,13,0.00,,,0.00,WUHU216HW,2013-01-18 19:30:00,
2013-01-18 12:35:00,57.2,4.1,30.07,WNW,293,5.1,6.7,12,0.00,,,0.00,WUHU216HW,2013-01-18 19:35:00,
2013-01-18 12:40:00,57.2,4.1,30.07,NW,315,3.6,6.3,12,0.00,,,0.00,WUHU216HW,2013-01-18 19:40:00,
2013-01-18 12:45:00,57.8,4.6,30.07,West,270,4.0,8.5,12,0.00,,,0.00,WUHU216HW,2013-01-18 19:45:00,
2013-01-18 12:50:00,58.0,3.3,30.07,North,0,2.9,8.7,11,0.00,,,0.00,WUHU216HW,2013-01-18 19:50:00,
2013-01-18 12:55:00,58.0,3.3,30.07,WNW,293,2.7,8.7,11,0.00,,,0.00,WUHU216HW,2013-01-18 19:55:00,
2013-01-18 13:00:00,58.1,4.9,30.07,WNW,293,4.0,5.1,12,0.00,,,0.00,WUHU216HW,2013-01-18 20:00:00,
2013-01-18 13:05:00,58.9,5.5,30.06,North,0,2.7,5.4,12,0.00,,,0.00,WUHU216HW,2013-01-18 20:05:00,
2013-01-18 13:10:00,59.2,4.2,30.06,West,270,4.3,5.4,11,0.00,,,0.00,WUHU216HW,2013-01-18 20:10:00,
2013-01-18 13:15:00,59.0,4.1,30.06,NW,315,3.8,6.9,11,0.00,,,0.00,WUHU216HW,2013-01-18 20:15:00,
2013-01-18 13:20:00,59.2,4.2,30.06,WNW,293,2.5,6.9,11,0.00,,,0.00,WUHU216HW,2013-01-18 20:20:00,
2013-01-18 13:25:00,59.2,4.2,30.06,WNW,293,2.5,2.5,11,0.00,,,0.00,WUHU216HW,2013-01-18 20:25:00,
2013-01-18 13:46:00,61.4,4.4,30.06,NW,315,4.0,4.0,10,0.00,,,0.00,WUHU216HW,2013-01-18 20:46:00,
2013-01-18 13:51:00,61.4,4.4,30.06,West,270,1.8,4.9,10,0.00,,,0.00,WUHU216HW,2013-01-18 20:51:00,
2013-01-18 13:56:00,61.7,4.7,30.06,WNW,293,2.2,4.9,10,0.00,,,0.00,WUHU216HW,2013-01-18 20:56:00,
2013-01-18 14:01:00,61.9,4.9,30.06,West,270,3.4,7.6,10,0.00,,,0.00,WUHU216HW,2013-01-18 21:01:00,
2013-01-18 14:06:00,61.6,6.1,30.06,West,270,2.7,7.6,11,0.00,,,0.00,WUHU216HW,2013-01-18 21:06:00,
2013-01-18 14:11:00,62.1,5.0,30.06,NW,315,5.4,5.6,10,0.00,,,0.00,WUHU216HW,2013-01-18 21:11:00,
2013-01-18 14:16:00,62.3,5.1,30.06,NW,315,3.1,5.4,10,0.00,,,0.00,WUHU216HW,2013-01-18 21:16:00,
2013-01-18 14:21:00,62.6,5.4,30.06,WSW,248,4.3,6.9,10,0.00,,,0.00,WUHU216HW,2013-01-18 21:21:00,
2013-01-18 14:26:00,63.2,5.8,30.06,NW,315,4.3,6.9,9,0.00,,,0.00,WUHU216HW,2013-01-18 21:26:00,
2013-01-18 14:31:00,63.2,5.8,30.06,WNW,293,4.9,5.6,10,0.00,,,0.00,WUHU216HW,2013-01-18 21:31:00,
2013-01-18 14:36:00,63.0,5.7,30.06,NNW,338,0.9,5.6,9,0.00,,,0.00,WUHU216HW,2013-01-18 21:36:00,
2013-01-18 14:41:00,63.2,5.8,30.05,West,270,3.6,4.0,10,0.00,,,0.00,WUHU216HW,2013-01-18 21:41:00,
2013-01-18 14:46:00,63.0,5.7,30.06,NNW,338,4.3,4.3,9,0.00,,,0.00,WUHU216HW,2013-01-18 21:46:00,
2013-01-18 14:51:00,62.3,5.1,30.06,WNW,293,3.1,5.1,10,0.00,,,0.00,WUHU216HW,2013-01-18 21:51:00,
2013-01-18 14:56:00,62.5,5.2,30.06,NW,315,2.9,6.0,10,0.00,,,0.00,WUHU216HW,2013-01-18 21:56:00,
2013-01-18 15:01:00,62.8,5.5,30.05,West,270,5.1,6.0,10,0.00,,,0.00,WUHU216HW,2013-01-18 22:01:00,
2013-01-18 15:06:00,62.5,5.2,30.05,NW,315,2.0,5.1,9,0.00,,,0.00,WUHU216HW,2013-01-18 22:06:00,
2013-01-18 15:11:00,63.0,5.7,30.05,WNW,293,3.8,3.8,10,0.00,,,0.00,WUHU216HW,2013-01-18 22:11:00,
2013-01-18 15:16:00,63.4,6.0,30.05,NW,315,4.0,4.7,9,0.00,,,0.00,WUHU216HW,2013-01-18 22:16:00,
2013-01-18 15:21:00,64.1,6.4,30.06,NW,315,3.4,4.7,8,0.00,,,0.00,WUHU216HW,2013-01-18 22:21:00,
2013-01-18 15:26:00,64.6,6.9,30.05,NW,315,3.1,4.5,8,0.00,,,0.00,WUHU216HW,2013-01-18 22:26:00,
2013-01-18 15:31:00,63.7,6.1,30.05,WNW,293,2.9,6.3,8,0.00,,,0.00,WUHU216HW,2013-01-18 22:31:00,
2013-01-18 15:36:00,64.3,6.6,30.06,West,270,2.2,6.3,10,0.00,,,0.00,WUHU216HW,2013-01-18 22:36:00,
2013-01-18 15:41:00,64.4,6.7,30.06,NW,315,3.4,4.7,8,0.00,,,0.00,WUHU216HW,2013-01-18 22:41:00,
2013-01-18 15:46:00,62.3,5.1,30.06,NW,315,3.1,3.4,8,0.00,,,0.00,WUHU216HW,2013-01-18 22:46:00,
2013-01-18 15:51:00,60.5,3.7,30.06,West,270,2.0,3.4,10,0.00,,,0.00,WUHU216HW,2013-01-18 22:51:00,
2013-01-18 15:56:00,59.9,3.2,30.06,WNW,293,2.2,4.0,10,0.00,,,0.00,WUHU216HW,2013-01-18 22:56:00,
2013-01-18 16:01:00,59.2,4.2,30.06,West,270,4.0,5.8,11,0.00,,,0.00,WUHU216HW,2013-01-18 23:01:00,
2013-01-18 16:06:00,58.5,3.6,30.06,NW,315,6.9,6.9,11,0.00,,,0.00,WUHU216HW,2013-01-18 23:06:00,
2013-01-18 16:11:00,57.8,3.1,30.06,NW,315,2.0,6.9,11,0.00,,,0.00,WUHU216HW,2013-01-18 23:11:00,
2013-01-18 16:16:00,57.1,4.1,30.06,West,270,1.6,6.9,12,0.00,,,0.00,WUHU216HW,2013-01-18 23:16:00,
2013-01-18 16:21:00,56.7,3.8,30.06,NW,315,3.6,4.3,12,0.00,,,0.00,WUHU216HW,2013-01-18 23:21:00,
2013-01-18 16:26:00,56.2,3.4,30.07,West,270,4.7,8.7,12,0.00,,,0.00,WUHU216HW,2013-01-18 23:26:00,
2013-01-18 16:31:00,55.4,2.9,30.06,NW,315,5.6,8.7,12,0.00,,,0.00,WUHU216HW,2013-01-18 23:31:00,
2013-01-18 16:36:00,54.5,3.7,30.07,West,270,6.3,8.1,13,0.00,,,0.00,WUHU216HW,2013-01-18 23:36:00,
2013-01-18 16:41:00,54.2,1.9,30.07,WSW,248,3.4,8.3,12,0.00,,,0.00,WUHU216HW,2013-01-18 23:41:00,
2013-01-18 16:46:00,53.6,2.9,30.06,NW,315,1.1,8.3,13,0.00,,,0.00,WUHU216HW,2013-01-18 23:46:00,
2013-01-18 16:51:00,53.1,4.0,30.07,West,270,2.0,5.4,14,0.00,,,0.00,WUHU216HW,2013-01-18 23:51:00,
2013-01-18 16:56:00,52.7,3.7,30.07,WNW,293,1.8,5.4,14,0.00,,,0.00,WUHU216HW,2013-01-18 23:56:00,
2013-01-18 17:01:00,52.2,3.2,30.07,WNW,293,4.3,5.1,14,0.00,,,0.00,WUHU216HW,2013-01-19 00:01:00,
2013-01-18 17:06:00,51.5,4.2,30.07,NW,315,3.4,5.1,15,0.00,,,0.00,WUHU216HW,2013-01-19 00:06:00,
2013-01-18 17:11:00,51.3,4.1,30.07,West,270,1.8,4.7,15,0.00,,,0.00,WUHU216HW,2013-01-19 00:11:00,
2013-01-18 17:16:00,51.1,4.0,30.07,NW,315,3.4,4.7,15,0.00,,,0.00,WUHU216HW,2013-01-19 00:16:00,
2013-01-18 17:21:00,50.6,3.5,30.07,NW,315,0.4,3.4,15,0.00,,,0.00,WUHU216HW,2013-01-19 00:21:00,
2013-01-18 17:26:00,50.2,4.7,30.07,NW,315,2.5,2.9,16,0.00,,,0.00,WUHU216HW,2013-01-19 00:26:00,
2013-01-18 17:31:00,49.9,4.4,30.07,WNW,293,3.4,3.4,16,0.00,,,0.00,WUHU216HW,2013-01-19 00:31:00,
2013-01-18 17:36:00,49.7,4.3,30.08,WNW,293,1.1,4.9,16,0.00,,,0.00,WUHU216HW,2013-01-19 00:36:00,
2013-01-18 17:41:00,49.5,4.2,30.08,NW,315,4.0,4.9,16,0.00,,,0.00,WUHU216HW,2013-01-19 00:41:00,
2013-01-18 17:46:00,49.5,4.2,30.08,NW,315,0.2,4.0,16,0.00,,,0.00,WUHU216HW,2013-01-19 00:46:00,
2013-01-18 17:51:00,49.3,4.0,30.08,WNW,293,4.7,5.1,16,0.00,,,0.00,WUHU216HW,2013-01-19 00:51:00,
2013-01-18 17:56:00,48.8,5.1,30.08,WNW,293,3.4,5.1,17,0.00,,,0.00,WUHU216HW,2013-01-19 00:56:00,
2013-01-18 18:01:00,48.6,4.9,30.08,NW,315,1.8,4.5,17,0.00,,,0.00,WUHU216HW,2013-01-19 01:01:00,
2013-01-18 18:06:00,48.6,4.9,30.08,NW,315,1.8,3.6,17,0.00,,,0.00,WUHU216HW,2013-01-19 01:06:00,
2013-01-18 18:11:00,48.6,4.9,30.08,WNW,293,1.6,3.6,17,0.00,,,0.00,WUHU216HW,2013-01-19 01:11:00,
2013-01-18 18:16:00,48.6,4.9,30.08,NW,315,3.4,3.6,17,0.00,,,0.00,WUHU216HW,2013-01-19 01:16:00,
2013-01-18 18:21:00,48.6,4.9,30.08,WNW,293,3.1,5.8,17,0.00,,,0.00,WUHU216HW,2013-01-19 01:21:00,
2013-01-18 18:26:00,48.6,4.9,30.08,NW,315,4.9,5.8,17,0.00,,,0.00,WUHU216HW,2013-01-19 01:26:00,
2013-01-18 18:32:00,48.8,5.1,30.08,NW,315,3.4,5.4,17,0.00,,,0.00,WUHU216HW,2013-01-19 01:32:00,
2013-01-18 18:37:00,48.6,4.9,30.08,NNW,338,3.6,5.8,17,0.00,,,0.00,WUHU216HW,2013-01-19 01:37:00,
2013-01-18 18:42:00,48.4,4.7,30.08,NW,315,2.0,5.8,17,0.00,,,0.00,WUHU216HW,2013-01-19 01:42:00,
2013-01-18 18:47:00,47.9,4.3,30.08,WNW,293,0.0,2.9,17,0.00,,,0.00,WUHU216HW,2013-01-19 01:47:00,
2013-01-18 18:52:00,47.3,3.9,30.08,WNW,293,1.6,2.9,17,0.00,,,0.00,WUHU216HW,2013-01-19 01:52:00,
2013-01-18 18:57:00,47.2,3.7,30.08,NW,315,3.4,5.4,17,0.00,,,0.00,WUHU216HW,2013-01-19 01:57:00,
2013-01-18 19:02:00,47.5,5.5,30.08,NW,315,1.8,5.4,18,0.00,,,0.00,WUHU216HW,2013-01-19 02:02:00,
2013-01-18 19:07:00,47.7,4.1,30.08,NW,315,4.7,5.4,17,0.00,,,0.00,WUHU216HW,2013-01-19 02:07:00,
2013-01-18 19:12:00,47.9,4.3,30.08,NW,315,1.6,5.4,17,0.00,,,0.00,WUHU216HW,2013-01-19 02:12:00,
2013-01-18 19:17:00,47.7,4.1,30.08,NW,315,0.9,4.3,17,0.00,,,0.00,WUHU216HW,2013-01-19 02:17:00,
2013-01-18 19:22:00,47.3,3.9,30.08,WNW,293,1.8,4.3,17,0.00,,,0.00,WUHU216HW,2013-01-19 02:22:00,
2013-01-18 19:27:00,47.3,3.9,30.08,NW,315,2.7,2.7,17,0.00,,,0.00,WUHU216HW,2013-01-19 02:27:00,
2013-01-18 19:32:00,47.0,5.0,30.08,NW,315,1.1,2.9,18,0.00,,,0.00,WUHU216HW,2013-01-19 02:32:00,
2013-01-18 19:37:00,46.4,4.6,30.08,SW,225,1.6,2.9,18,0.00,,,0.00,WUHU216HW,2013-01-19 02:37:00,
2013-01-18 19:42:00,45.7,4.1,30.07,SW,225,0.0,1.6,18,0.00,,,0.00,WUHU216HW,2013-01-19 02:42:00,
2013-01-18 19:47:00,45.2,5.0,30.07,West,270,2.2,2.2,19,0.00,,,0.00,WUHU216HW,2013-01-19 02:47:00,
2013-01-18 19:52:00,45.2,6.6,30.07,WNW,293,2.2,2.2,20,0.00,,,0.00,WUHU216HW,2013-01-19 02:52:00,
2013-01-18 19:57:00,45.2,6.6,30.07,WNW,293,2.2,2.2,20,0.00,,,0.00,WUHU216HW,2013-01-19 02:57:00,
2013-01-18 20:02:00,45.2,6.6,30.07,NW,315,3.1,3.1,20,0.00,,,0.00,WUHU216HW,2013-01-19 03:02:00,
2013-01-18 20:07:00,45.2,6.6,30.07,West,270,0.4,3.1,20,0.00,,,0.00,WUHU216HW,2013-01-19 03:07:00,
2013-01-18 20:12:00,45.7,4.1,30.07,WNW,293,3.4,3.4,18,0.00,,,0.00,WUHU216HW,2013-01-19 03:12:00,
2013-01-18 20:17:00,46.8,3.4,30.06,WSW,248,4.3,5.1,17,0.00,,,0.00,WUHU216HW,2013-01-19 03:17:00,
2013-01-18 20:22:00,47.9,2.8,30.07,WNW,293,4.5,7.4,16,0.00,,,0.00,WUHU216HW,2013-01-19 03:22:00,
2013-01-18 20:27:00,48.1,3.0,30.06,NNW,338,3.4,7.4,16,0.00,,,0.00,WUHU216HW,2013-01-19 03:27:00,
2013-01-18 20:32:00,47.9,2.8,30.06,WNW,293,4.3,4.9,16,0.00,,,0.00,WUHU216HW,2013-01-19 03:32:00,
2013-01-18 20:37:00,47.9,2.8,30.06,NW,315,2.9,4.9,16,0.00,,,0.00,WUHU216HW,2013-01-19 03:37:00,
2013-01-18 20:42:00,47.7,4.1,30.06,NW,315,1.3,4.7,17,0.00,,,0.00,WUHU216HW,2013-01-19 03:42:00,
2013-01-18 20:47:00,47.3,2.3,30.06,NW,315,2.9,4.7,16,0.00,,,0.00,WUHU216HW,2013-01-19 03:47:00,
2013-01-18 20:52:00,47.3,3.9,30.07,NW,315,1.1,3.8,17,0.00,,,0.00,WUHU216HW,2013-01-19 03:52:00,
2013-01-18 20:57:00,47.2,3.7,30.07,NW,315,3.4,4.9,17,0.00,,,0.00,WUHU216HW,2013-01-19 03:57:00,
2013-01-18 21:02:00,47.3,3.9,30.06,NW,315,2.0,4.9,17,0.00,,,0.00,WUHU216HW,2013-01-19 04:02:00,
2013-01-18 21:07:00,47.2,3.7,30.07,NW,315,1.8,5.8,17,0.00,,,0.00,WUHU216HW,2013-01-19 04:07:00,
2013-01-18 21:12:00,47.2,3.7,30.07,NW,315,0.9,5.8,17,0.00,,,0.00,WUHU216HW,2013-01-19 04:12:00,
2013-01-18 21:17:00,47.0,3.6,30.07,NW,315,0.0,3.4,17,0.00,,,0.00,WUHU216HW,2013-01-19 04:17:00,
2013-01-18 21:22:00,46.4,4.6,30.06,WNW,293,0.0,1.1,18,0.00,,,0.00,WUHU216HW,2013-01-19 04:22:00,
2013-01-18 21:27:00,46.1,4.3,30.06,NW,315,0.0,1.1,18,0.00,,,0.00,WUHU216HW,2013-01-19 04:27:00,
2013-01-18 21:32:00,45.9,4.1,30.06,WNW,293,1.1,2.9,18,0.00,,,0.00,WUHU216HW,2013-01-19 04:32:00,
2013-01-18 21:37:00,46.1,4.3,30.06,WNW,293,0.0,2.9,18,0.00,,,0.00,WUHU216HW,2013-01-19 04:37:00,
2013-01-18 21:42:00,45.7,4.1,30.06,WNW,293,0.0,0.4,18,0.00,,,0.00,WUHU216HW,2013-01-19 04:42:00,
2013-01-18 21:47:00,45.5,3.9,30.06,NW,315,0.2,0.9,18,0.00,,,0.00,WUHU216HW,2013-01-19 04:47:00,
2013-01-18 21:52:00,46.4,3.2,30.06,NW,315,2.7,3.4,17,0.00,,,0.00,WUHU216HW,2013-01-19 04:52:00,
2013-01-18 21:57:00,47.0,3.6,30.06,WNW,293,0.7,3.4,17,0.00,,,0.00,WUHU216HW,2013-01-19 04:57:00,
2013-01-18 22:00:00,47.2,3.7,30.05,NNW,338,3.1,3.4,17,0.00,,,0.00,WUHU216HW,2013-01-19 05:00:00,
2013-01-18 22:01:00,47.2,3.7,30.05,NW,315,2.2,3.4,17,0.00,,,0.00,WUHU216HW,2013-01-19 05:01:00,
2013-01-18 22:03:00,47.2,3.7,30.05,North,0,4.5,4.5,17,0.00,,,0.00,WUHU216HW,2013-01-19 05:03:00,
2013-01-18 22:08:00,47.5,4.0,30.05,NW,315,0.4,4.5,17,0.00,,,0.00,WUHU216HW,2013-01-19 05:08:00,
2013-01-18 22:13:00,47.5,4.0,30.05,WNW,293,1.1,3.1,17,0.00,,,0.00,WUHU216HW,2013-01-19 05:13:00,
2013-01-18 22:18:00,47.0,3.6,30.05,WNW,293,0.0,2.2,17,0.00,,,0.00,WUHU216HW,2013-01-19 05:18:00,
2013-01-18 22:23:00,46.6,3.2,30.05,WNW,293,0.4,0.7,17,0.00,,,0.00,WUHU216HW,2013-01-19 05:23:00,
2013-01-18 22:28:00,46.3,3.0,30.06,NNW,338,3.6,3.6,17,0.00,,,0.00,WUHU216HW,2013-01-19 05:28:00,
2013-01-18 22:33:00,47.5,2.5,30.05,West,270,7.4,7.4,16,0.00,,,0.00,WUHU216HW,2013-01-19 05:33:00,
2013-01-18 22:38:00,48.4,3.2,30.06,NW,315,0.9,7.4,16,0.00,,,0.00,WUHU216HW,2013-01-19 05:38:00,
2013-01-18 22:43:00,48.6,1.9,30.06,NW,315,2.2,3.4,15,0.00,,,0.00,WUHU216HW,2013-01-19 05:43:00,
2013-01-18 22:48:00,48.4,1.8,30.05,West,270,3.6,3.6,15,0.00,,,0.00,WUHU216HW,2013-01-19 05:48:00,
2013-01-18 22:53:00,48.4,3.2,30.06,WNW,293,0.0,3.6,16,0.00,,,0.00,WUHU216HW,2013-01-19 05:53:00,
2013-01-18 22:58:00,47.9,2.8,30.06,NW,315,0.4,3.6,16,0.00,,,0.00,WUHU216HW,2013-01-19 05:58:00,
2013-01-18 23:03:00,47.7,2.7,30.05,WNW,293,4.0,4.0,16,0.00,,,0.00,WUHU216HW,2013-01-19 06:03:00,
2013-01-18 23:08:00,47.7,2.7,30.05,West,270,4.0,7.2,16,0.00,,,0.00,WUHU216HW,2013-01-19 06:08:00,
2013-01-18 23:13:00,47.9,2.8,30.05,West,270,1.8,7.2,16,0.00,,,0.00,WUHU216HW,2013-01-19 06:13:00,
2013-01-18 23:18:00,47.9,2.8,30.05,NNW,338,2.5,4.9,16,0.00,,,0.00,WUHU216HW,2013-01-19 06:18:00,
2013-01-18 23:23:00,48.2,3.1,30.05,WNW,293,4.0,5.6,16,0.00,,,0.00,WUHU216HW,2013-01-19 06:23:00,
2013-01-18 23:28:00,48.6,3.4,30.04,West,270,3.4,5.6,16,0.00,,,0.00,WUHU216HW,2013-01-19 06:28:00,
2013-01-18 23:33:00,48.6,3.4,30.05,West,270,4.7,6.3,16,0.00,,,0.00,WUHU216HW,2013-01-19 06:33:00,
2013-01-18 23:38:00,48.6,1.9,30.05,NW,315,5.4,7.6,15,0.00,,,0.00,WUHU216HW,2013-01-19 06:38:00,
2013-01-18 23:43:00,48.8,2.1,30.05,West,270,1.8,7.6,15,0.00,,,0.00,WUHU216HW,2013-01-19 06:43:00,
2013-01-18 23:48:00,49.1,2.3,30.05,NNW,338,2.5,7.8,15,0.00,,,0.00,WUHU216HW,2013-01-19 06:48:00,
2013-01-18 23:53:00,49.3,1.0,30.05,NW,315,4.9,7.8,14,0.00,,,0.00,WUHU216HW,2013-01-19 06:53:00,
2013-01-18 23:58:00,49.3,1.0,30.06,West,270,7.8,7.8,14,0.00,,,0.00,WUHU216HW,2013-01-19 06:58:00,